Terug naar catalogus

STAR VIBE

ActiefWetenschapSSO
NORAD 55009·PAYLOAD·🇵🇱 Poland
Deze satellietnaam is nog niet bevestigd door officiële bronnen.

Gelanceerd Jan 3, 2023 vanaf Cape Canaveral Space Force Station

Loading…

Volgende Passages (komende 24 uur)

TLE

VersSource: Space-Track

Epoch: Sep 14, 2026, 14:55 UTC

1 55009U 23001A   26257.62190895  .00012221  00000-0  26245-3 0  9997
2 55009  97.3074 322.5449 0006359 138.0453 222.1284 15.44818699206023

Volg STAR VIBE in realtime met AllMySat

Download on the App Store